Location: Fort Collins
(40.5850°N, 105.0840°W)
Time: 05:35:11
(UTC-06:00)

Cosmos 2297 Rocket - Visible Passes

Search period start: 19 April 2018 00:00
Search period end: 29 April 2018 00:00
Orbit: 838 x 845 km, 71.0° (Epoch: 18 April)

Date Brightness Start Highest point End Pass type
(mag) Time Alt. Az. Time Alt. Az. Time Alt. Az.
26 Apr 3.8 05:25:16 10° S 05:30:22 36° ESE 05:35:30 10° NE visible
27 Apr 3.8 05:10:15 10° SSE 05:15:17 34° ESE 05:20:20 10° NE visible
28 Apr 3.9 04:55:15 10° SSE 05:00:12 32° ESE 05:05:10 10° NE visible
